RYR3071 LEPA-LEBL

Flight info

Callsign RYR3071
Flight time 0h 28m
Altitude 18000
Route ESPOR L2 NEPAL
Aircraft A320/M-SDE3FGHIRWY/LB1

Departure

Time 2026-05-07 16:48
Airport Palma de Mallorca Airport (LEPA)

Arrival

Time 2026-05-07 17:16
Airport Josep Tarradellas Barcelona-El Prat Airport (LEBL)
Time Latitude Longitude Altitude Speed Heading
2026-05-07 16:24 39.54987 2.73387 35 ft 0 kts 163°
2026-05-07 16:37 39.54998 2.73383 35 ft 2 kts 163°
2026-05-07 16:37 39.55012 2.73378 35 ft 2 kts 164°
2026-05-07 16:37 39.55025 2.73368 35 ft 2 kts 129°
2026-05-07 16:38 39.55032 2.73351 35 ft 2 kts 98°
2026-05-07 16:38 39.55032 2.73332 35 ft 2 kts 94°
2026-05-07 16:38 39.55033 2.73312 35 ft 2 kts 94°
2026-05-07 16:38 39.55034 2.73293 35 ft 2 kts 94°
2026-05-07 16:39 39.55035 2.73273 35 ft 2 kts 94°
2026-05-07 16:39 39.55036 2.73262 35 ft 1 kts 99°
2026-05-07 16:39 39.55035 2.73252 35 ft 0 kts 70°
2026-05-07 16:41 39.55043 2.73285 35 ft 9 kts 72°
2026-05-07 16:41 39.55086 2.73401 35 ft 15 kts 59°
2026-05-07 16:41 39.55141 2.73519 35 ft 15 kts 59°
2026-05-07 16:42 39.55177 2.73616 35 ft 8 kts 105°
2026-05-07 16:42 39.55175 2.73691 35 ft 9 kts 73°
2026-05-07 16:42 39.55164 2.73772 35 ft 9 kts 79°
2026-05-07 16:42 39.55165 2.73851 35 ft 9 kts 151°
2026-05-07 16:43 39.55078 2.73924 35 ft 20 kts 149°
2026-05-07 16:43 39.54956 2.74020 35 ft 20 kts 149°
2026-05-07 16:43 39.54838 2.74113 35 ft 18 kts 150°
2026-05-07 16:43 39.54755 2.74057 35 ft 15 kts 239°
2026-05-07 16:44 39.54699 2.73936 35 ft 16 kts 238°
2026-05-07 16:44 39.54638 2.73810 35 ft 17 kts 238°
2026-05-07 16:44 39.54559 2.73642 35 ft 23 kts 239°
2026-05-07 16:44 39.54475 2.73465 35 ft 22 kts 238°
2026-05-07 16:45 39.54395 2.73294 35 ft 22 kts 239°
2026-05-07 16:45 39.54328 2.73165 35 ft 9 kts 200°
2026-05-07 16:45 39.54282 2.73225 35 ft 11 kts 103°
2026-05-07 16:45 39.54277 2.73304 35 ft 1 kts 93°
2026-05-07 16:46 39.54275 2.73328 35 ft 8 kts 93°
2026-05-07 16:46 39.54271 2.73419 35 ft 10 kts 94°
2026-05-07 16:46 39.54275 2.73487 35 ft 2 kts 59°
2026-05-07 16:47 39.54278 2.73494 35 ft 0 kts 59°
2026-05-07 16:47 39.54287 2.73514 35 ft 9 kts 59°
2026-05-07 16:47 39.54446 2.73849 35 ft 84 kts 59°
2026-05-07 16:47 39.54884 2.74778 37 ft 155 kts 61°
2026-05-07 16:48 39.55471 2.76023 673 ft 163 kts 58°
2026-05-07 16:48 39.56035 2.77135 1397 ft 169 kts 57°
2026-05-07 16:48 39.56643 2.78387 2249 ft 167 kts 59°
2026-05-07 16:48 39.57261 2.79691 2813 ft 175 kts 58°
2026-05-07 16:49 39.57911 2.81086 3362 ft 185 kts 59°
2026-05-07 16:49 39.58587 2.82541 3904 ft 195 kts 59°
2026-05-07 16:49 39.59301 2.84116 4420 ft 209 kts 59°
2026-05-07 16:49 39.60131 2.85751 4910 ft 227 kts 45°
2026-05-07 16:50 39.61550 2.86696 5434 ft 243 kts
2026-05-07 16:50 39.63225 2.86290 5964 ft 262 kts 331°
2026-05-07 16:50 39.64523 2.84561 6566 ft 278 kts 300°
2026-05-07 16:50 39.65270 2.82265 7194 ft 291 kts 291°
2026-05-07 16:51 39.65975 2.79747 7832 ft 302 kts 292°
2026-05-07 16:51 39.66777 2.77176 8465 ft 312 kts 294°
2026-05-07 16:51 39.67666 2.74584 9092 ft 321 kts 296°
2026-05-07 16:51 39.68621 2.71928 9722 ft 329 kts 296°
2026-05-07 16:52 39.69619 2.69216 10354 ft 336 kts 298°
2026-05-07 16:52 39.70863 2.66631 10982 ft 341 kts 305°
2026-05-07 16:52 39.72117 2.64032 11600 ft 346 kts 298°
2026-05-07 16:52 39.73183 2.61194 12235 ft 350 kts 295°
2026-05-07 16:53 39.74179 2.58347 12855 ft 353 kts 294°
2026-05-07 16:53 39.75207 2.55425 13483 ft 355 kts 299°
2026-05-07 16:53 39.76799 2.52981 14094 ft 358 kts 323°
2026-05-07 16:53 39.78881 2.51217 14735 ft 360 kts 328°
2026-05-07 16:54 39.81009 2.49551 15358 ft 361 kts 328°
2026-05-07 16:54 39.83159 2.47843 15988 ft 362 kts 328°
2026-05-07 16:54 39.85272 2.46126 16610 ft 362 kts 327°
2026-05-07 16:54 39.87410 2.44359 17243 ft 362 kts 327°
2026-05-07 16:55 39.89543 2.42576 17744 ft 366 kts 327°
2026-05-07 16:55 39.91678 2.40780 17941 ft 378 kts 326°
2026-05-07 16:55 39.93926 2.38878 17945 ft 394 kts 326°
2026-05-07 16:55 39.96265 2.36893 17948 ft 409 kts 326°
2026-05-07 16:56 39.98681 2.34841 17946 ft 413 kts 326°
2026-05-07 16:56 40.01090 2.32793 17947 ft 414 kts 326°
2026-05-07 16:56 40.05888 2.28707 17947 ft 414 kts 326°
2026-05-07 16:57 40.08325 2.26628 17947 ft 414 kts 326°
2026-05-07 16:57 40.10713 2.24588 17947 ft 414 kts 326°
2026-05-07 16:57 40.13154 2.22500 17947 ft 414 kts 326°
2026-05-07 16:57 40.15636 2.20375 17947 ft 414 kts 326°
2026-05-07 16:58 40.18051 2.18304 17947 ft 414 kts 326°
2026-05-07 16:58 40.20459 2.16238 17947 ft 414 kts 326°
2026-05-07 16:58 40.22858 2.14179 17947 ft 414 kts 326°
2026-05-07 16:58 40.25280 2.12113 17946 ft 415 kts 327°
2026-05-07 16:59 40.27795 2.10278 17947 ft 415 kts 332°
2026-05-07 16:59 40.30411 2.08767 17948 ft 416 kts 338°
2026-05-07 16:59 40.33150 2.07520 17947 ft 410 kts 341°
2026-05-07 16:59 40.35814 2.06412 17951 ft 395 kts 341°
2026-05-07 17:00 40.38422 2.05342 17955 ft 393 kts 341°
2026-05-07 17:00 40.41023 2.04272 17958 ft 393 kts 341°
2026-05-07 17:00 40.43634 2.03193 17961 ft 393 kts 341°
2026-05-07 17:00 40.46215 2.02122 17964 ft 393 kts 341°
2026-05-07 17:01 40.48817 2.01040 17967 ft 393 kts 341°
2026-05-07 17:01 40.51416 1.99958 17969 ft 393 kts 341°
2026-05-07 17:01 40.54006 1.98877 17970 ft 393 kts 341°
2026-05-07 17:01 40.56605 1.97792 17971 ft 393 kts 341°
2026-05-07 17:02 40.59216 1.96701 17808 ft 393 kts 341°
2026-05-07 17:02 40.61807 1.95630 17381 ft 389 kts 342°
2026-05-07 17:02 40.64352 1.94622 16955 ft 383 kts 342°
2026-05-07 17:02 40.66864 1.93639 16506 ft 367 kts 342°
2026-05-07 17:03 40.69255 1.92700 16055 ft 352 kts 342°
2026-05-07 17:03 40.71558 1.91792 15603 ft 340 kts 342°
2026-05-07 17:03 40.73780 1.90909 15151 ft 329 kts 341°
2026-05-07 17:03 40.75907 1.90019 14703 ft 320 kts 341°
2026-05-07 17:04 40.77972 1.89136 14255 ft 308 kts 340°
2026-05-07 17:04 40.79995 1.88267 13798 ft 298 kts 340°
2026-05-07 17:04 40.81930 1.87438 13345 ft 289 kts 340°
2026-05-07 17:04 40.83794 1.86640 12898 ft 281 kts 340°
2026-05-07 17:05 40.85649 1.85846 12440 ft 274 kts 340°
2026-05-07 17:05 40.87419 1.85088 11994 ft 272 kts 341°
2026-05-07 17:05 40.89209 1.84321 11542 ft 269 kts 341°
2026-05-07 17:05 40.90970 1.83566 11093 ft 267 kts 341°
2026-05-07 17:06 40.92735 1.82809 10640 ft 265 kts 341°
2026-05-07 17:06 40.94458 1.82070 10194 ft 262 kts 341°
2026-05-07 17:06 40.96195 1.81326 9741 ft 260 kts 342°
2026-05-07 17:06 40.97897 1.80597 9293 ft 259 kts 341°
2026-05-07 17:07 40.99596 1.79869 8843 ft 257 kts 342°
2026-05-07 17:07 41.01305 1.79134 8387 ft 255 kts 342°
2026-05-07 17:07 41.02960 1.78425 7943 ft 253 kts 342°
2026-05-07 17:07 41.04642 1.77702 7488 ft 252 kts 342°
2026-05-07 17:08 41.06294 1.76993 7063 ft 248 kts 342°
2026-05-07 17:08 41.07908 1.76297 6701 ft 240 kts 343°
2026-05-07 17:08 41.09460 1.75630 6348 ft 236 kts 343°
2026-05-07 17:08 41.11031 1.74954 5995 ft 238 kts 343°
2026-05-07 17:09 41.12623 1.74270 5642 ft 240 kts 343°
2026-05-07 17:09 41.14203 1.73591 5293 ft 241 kts 343°
2026-05-07 17:09 41.15842 1.73246 4962 ft 240 kts
2026-05-07 17:09 41.17374 1.74020 4685 ft 238 kts 37°
2026-05-07 17:10 41.18505 1.75611 4413 ft 237 kts 56°
2026-05-07 17:10 41.19317 1.77521 4199 ft 233 kts 62°
2026-05-07 17:10 41.20013 1.79414 4023 ft 228 kts 63°
2026-05-07 17:10 41.20675 1.81312 3846 ft 223 kts 65°
2026-05-07 17:11 41.21306 1.83166 3667 ft 218 kts 65°
2026-05-07 17:11 41.21921 1.84981 3493 ft 213 kts 65°
2026-05-07 17:11 41.22517 1.86742 3278 ft 207 kts 65°
2026-05-07 17:11 41.23092 1.88442 3041 ft 197 kts 65°
2026-05-07 17:12 41.23643 1.90065 2800 ft 188 kts 65°
2026-05-07 17:12 41.24177 1.91633 2521 ft 186 kts 66°
2026-05-07 17:12 41.24707 1.93189 2261 ft 186 kts 66°
2026-05-07 17:12 41.25236 1.94745 2003 ft 180 kts 66°
2026-05-07 17:13 41.25742 1.96227 1783 ft 170 kts 65°
2026-05-07 17:13 41.26213 1.97612 1556 ft 162 kts 65°
2026-05-07 17:13 41.26662 1.98925 1363 ft 150 kts 66°
2026-05-07 17:13 41.27084 2.00164 1163 ft 142 kts 65°
2026-05-07 17:14 41.27490 2.01332 984 ft 138 kts 65°
2026-05-07 17:14 41.27891 2.02474 802 ft 137 kts 67°
2026-05-07 17:14 41.28280 2.03644 601 ft 139 kts 67°
2026-05-07 17:14 41.28679 2.04818 428 ft 140 kts 66°
2026-05-07 17:15 41.29078 2.05997 236 ft 141 kts 67°
2026-05-07 17:15 41.29483 2.07188 70 ft 140 kts 66°
2026-05-07 17:15 41.29867 2.08311 21 ft 122 kts 66°
2026-05-07 17:15 41.30152 2.09155 15 ft 68 kts 64°
2026-05-07 17:16 41.30367 2.09505 12 ft 30 kts 35°
2026-05-07 17:16 41.30469 2.09519 12 ft 14 kts 332°
2026-05-07 17:16 41.30490 2.09408 14 ft 14 kts 242°
2026-05-07 17:16 41.30444 2.09271 14 ft 19 kts 246°
2026-05-07 17:17 41.30379 2.09083 16 ft 24 kts 244°
2026-05-07 17:17 41.30309 2.08878 18 ft 23 kts 245°
2026-05-07 17:17 41.30242 2.08685 18 ft 22 kts 246°
2026-05-07 17:17 41.30193 2.08542 19 ft 9 kts 246°
2026-05-07 17:18 41.30218 2.08481 20 ft 8 kts 333°
2026-05-07 17:18 41.30269 2.08449 21 ft 7 kts 327°
2026-05-07 17:18 41.30273 2.08368 23 ft 13 kts 246°
2026-05-07 17:18 41.30224 2.08224 25 ft 17 kts 245°
2026-05-07 17:19 41.30174 2.08078 27 ft 16 kts 245°
2026-05-07 17:19 41.30129 2.07945 27 ft 9 kts 248°
2026-05-07 17:19 41.30155 2.07875 28 ft 9 kts 303°
2026-05-07 17:19 41.30186 2.07810 28 ft 4 kts 302°
2026-05-07 17:20 41.30191 2.07800 28 ft 0 kts 302°